Check out our new BloomSky Weather System.

Active alerts


No alerts


Thunder radar  blitzortung!


Rain radar more information rain snow radar


Visit our other weather sites:

Template documentation
and downloads

And another site



Weather Underground History page Text

Daily Summary for July 21, 2017 Units:  English    Metric   Both
« Previous Day
Next Day »
Daily Weekly Monthly Yearly Custom
  High: Low: Average:
Temperature: 98.1 °F 76.8 °F 85.9 °F
Dew Point: 81.5 °F 72.5 °F 77.3 °F
Humidity: 96 % 47 % 77 %
Wind Speed: 10.0 mph 0.0 mph 1.5 mph
Wind Gust: 17.0 mph - -
Wind:- - SSE
Pressure: 30.04 in 29.91 in -
Precipitation: 0.00 in    
Historical Graphs
 
 
Tabular Data for July 21, 2017
Time Temperature Dew Point Pressure Wind Wind Speed Wind Gust Humidity Rainfall Rate (Hourly)
00:04 82.6 °F 76.1 °F 30.01 in Calm   3.0 mph 81 % 0.00 in
00:09 82.6 °F 76.5 °F 30.01 in Calm   3.0 mph 82 % 0.00 in
00:14 82.4 °F 76.6 °F 30.01 in Calm   1.0 mph 83 % 0.00 in
00:19 82.2 °F 76.5 °F 30.01 in Calm   2.0 mph 83 % 0.00 in
00:24 82.2 °F 76.5 °F 30.02 in Calm   2.0 mph 83 % 0.00 in
00:29 82.2 °F 76.5 °F 30.01 in Calm   2.0 mph 83 % 0.00 in
00:34 82.0 °F 76.6 °F 30.01 in Calm   2.0 mph 84 % 0.00 in
00:39 82.0 °F 76.6 °F 30.02 in Calm   2.0 mph 84 % 0.00 in
00:44 81.9 °F 76.5 °F 30.01 in Calm   2.0 mph 84 % 0.00 in
00:49 81.9 °F 76.5 °F 30.01 in Calm   2.0 mph 84 % 0.00 in
00:54 81.7 °F 76.6 °F 30.01 in Calm   3.0 mph 85 % 0.00 in
00:59 81.7 °F 76.6 °F 30.01 in Calm   3.0 mph 85 % 0.00 in
01:04 81.3 °F 76.5 °F 30.01 in Calm   3.0 mph 85 % 0.00 in
01:09 81.3 °F 76.6 °F 30.01 in Calm   1.0 mph 86 % 0.00 in
01:14 81.3 °F 76.6 °F 30.01 in Calm   1.0 mph 86 % 0.00 in
01:19 81.3 °F 76.6 °F 30.01 in SE 1.0 mph 1.0 mph 86 % 0.00 in
01:24 81.3 °F 76.6 °F 30.01 in Calm   1.0 mph 86 % 0.00 in
01:29 81.1 °F 76.5 °F 30.01 in Calm   1.0 mph 86 % 0.00 in
01:34 81.0 °F 76.5 °F 30.01 in Calm   1.0 mph 86 % 0.00 in
01:39 81.0 °F 76.6 °F 30.01 in Calm   1.0 mph 87 % 0.00 in
01:44 81.0 °F 76.6 °F 30.00 in Calm   1.0 mph 87 % 0.00 in
01:49 81.0 °F 76.6 °F 30.00 in Calm   1.0 mph 87 % 0.00 in
01:54 81.0 °F 76.6 °F 30.00 in South 1.0 mph 1.0 mph 87 % 0.00 in
01:59 81.0 °F 76.6 °F 30.00 in Calm   2.0 mph 87 % 0.00 in
02:04 80.8 °F 76.5 °F 30.00 in Calm   2.0 mph 87 % 0.00 in
02:09 80.4 °F 76.1 °F 30.00 in Calm   2.0 mph 87 % 0.00 in
02:14 80.2 °F 76.3 °F 30.00 in Calm   2.0 mph 88 % 0.00 in
02:19 80.2 °F 76.3 °F 30.00 in Calm     88 % 0.00 in
02:24 80.1 °F 76.1 °F 30.00 in Calm   1.0 mph 88 % 0.00 in
02:29 80.1 °F 76.1 °F 30.00 in Calm   1.0 mph 88 % 0.00 in
02:34 79.9 °F 76.3 °F 30.00 in Calm   1.0 mph 89 % 0.00 in
02:39 79.9 °F 76.3 °F 30.00 in Calm     89 % 0.00 in
02:45 79.7 °F 76.1 °F 29.99 in Calm     89 % 0.00 in
02:50 79.7 °F 76.5 °F 29.99 in Calm   1.0 mph 90 % 0.00 in
02:55 79.5 °F 75.9 °F 29.99 in Calm   1.0 mph 89 % 0.00 in
03:00 79.3 °F 76.1 °F 29.99 in Calm   1.0 mph 90 % 0.00 in
03:05 79.2 °F 75.9 °F 29.99 in Calm   1.0 mph 90 % 0.00 in
03:10 79.3 °F 76.1 °F 29.99 in Calm     90 % 0.00 in
03:15 79.2 °F 75.9 °F 29.99 in Calm     90 % 0.00 in
03:20 79.0 °F 75.7 °F 29.99 in Calm     90 % 0.00 in
03:25 79.0 °F 76.1 °F 29.99 in Calm     91 % 0.00 in
03:30 79.0 °F 76.1 °F 29.99 in Calm   1.0 mph 91 % 0.00 in
03:35 79.0 °F 76.5 °F 29.99 in Calm   1.0 mph 92 % 0.00 in
03:40 78.6 °F 76.1 °F 29.99 in Calm   1.0 mph 92 % 0.00 in
03:45 78.6 °F 76.1 °F 29.99 in Calm     92 % 0.00 in
03:50 78.6 °F 76.1 °F 29.98 in Calm     92 % 0.00 in
03:55 78.8 °F 76.3 °F 29.98 in Calm     92 % 0.00 in
04:00 78.8 °F 76.3 °F 29.98 in Calm     92 % 0.00 in
04:05 78.8 °F 76.3 °F 29.98 in Calm     92 % 0.00 in
04:10 78.6 °F 76.1 °F 29.98 in Calm     92 % 0.00 in
04:15 78.6 °F 76.1 °F 29.98 in Calm     92 % 0.00 in
04:20 78.6 °F 76.1 °F 29.98 in Calm     92 % 0.00 in
04:25 78.4 °F 75.9 °F 29.98 in Calm     92 % 0.00 in
04:30 78.4 °F 75.9 °F 29.98 in Calm     92 % 0.00 in
04:35 78.3 °F 75.7 °F 29.98 in Calm     92 % 0.00 in
04:40 78.3 °F 76.1 °F 29.98 in Calm     93 % 0.00 in
04:45 78.1 °F 75.9 °F 29.98 in Calm     93 % 0.00 in
04:50 77.9 °F 75.7 °F 29.98 in Calm     93 % 0.00 in
04:51 77.9 °F 75.7 °F 29.98 in Calm     93 % 0.00 in
04:56 77.9 °F 75.7 °F 29.98 in Calm     93 % 0.00 in
05:01 77.9 °F 75.7 °F 29.98 in Calm     93 % 0.00 in
05:06 77.7 °F 75.9 °F 29.98 in Calm     94 % 0.00 in
05:11 77.7 °F 75.9 °F 29.98 in Calm     94 % 0.00 in
05:16 77.7 °F 75.9 °F 29.98 in Calm     94 % 0.00 in
05:21 77.5 °F 75.7 °F 29.99 in Calm   1.0 mph 94 % 0.00 in
05:26 77.7 °F 75.9 °F 29.99 in Calm   1.0 mph 94 % 0.00 in
05:31 77.5 °F 75.7 °F 29.99 in Calm   1.0 mph 94 % 0.00 in
05:36 77.5 °F 75.7 °F 29.99 in Calm   1.0 mph 94 % 0.00 in
05:41 77.5 °F 75.9 °F 29.99 in Calm   1.0 mph 95 % 0.00 in
05:44 77.5 °F 75.7 °F 30.00 in Calm   1.0 mph 94 % 0.00 in
05:49 77.5 °F 75.7 °F 30.00 in Calm   1.0 mph 94 % 0.00 in
05:54 77.4 °F 75.6 °F 30.00 in Calm   1.0 mph 94 % 0.00 in
05:59 77.2 °F 75.6 °F 30.00 in Calm     95 % 0.00 in
06:04 77.4 °F 75.7 °F 30.00 in Calm     95 % 0.00 in
06:09 77.4 °F 75.7 °F 30.00 in Calm   1.0 mph 95 % 0.00 in
06:14 77.4 °F 75.7 °F 30.00 in Calm   1.0 mph 95 % 0.00 in
06:19 77.4 °F 75.7 °F 30.00 in Calm   1.0 mph 95 % 0.00 in
06:24 77.2 °F 75.6 °F 30.00 in Calm     95 % 0.00 in
06:29 77.0 °F 75.4 °F 30.00 in Calm     95 % 0.00 in
06:34 77.0 °F 75.4 °F 30.00 in Calm     95 % 0.00 in
06:39 76.8 °F 75.2 °F 30.00 in Calm     95 % 0.00 in
06:44 76.8 °F 75.2 °F 30.00 in Calm     95 % 0.00 in
06:49 76.8 °F 75.2 °F 30.00 in Calm     95 % 0.00 in
06:54 76.8 °F 75.6 °F 30.01 in Calm     96 % 0.00 in
06:59 76.8 °F 75.6 °F 30.01 in Calm     96 % 0.00 in
07:04 76.8 °F 75.6 °F 30.01 in Calm     96 % 0.00 in
07:09 77.2 °F 75.9 °F 30.01 in Calm     96 % 0.00 in
07:14 77.2 °F 75.9 °F 30.01 in Calm     96 % 0.00 in
07:19 77.5 °F 76.3 °F 30.01 in Calm     96 % 0.00 in
07:24 78.1 °F 76.8 °F 30.01 in Calm     96 % 0.00 in
07:29 78.8 °F 77.5 °F 30.01 in Calm   1.0 mph 96 % 0.00 in
07:34 79.3 °F 78.1 °F 30.02 in Calm   1.0 mph 96 % 0.00 in
07:39 80.1 °F 78.8 °F 30.02 in Calm   1.0 mph 96 % 0.00 in
07:44 80.6 °F 79.0 °F 30.02 in Calm     95 % 0.00 in
07:49 81.1 °F 79.2 °F 30.03 in Calm   1.0 mph 94 % 0.00 in
07:54 81.9 °F 79.9 °F 30.03 in Calm   1.0 mph 94 % 0.00 in
07:59 82.8 °F 80.6 °F 30.03 in Calm   1.0 mph 93 % 0.00 in
08:04 83.1 °F 80.2 °F 30.03 in Calm   1.0 mph 91 % 0.00 in
08:09 83.8 °F 80.2 °F 30.04 in Calm   1.0 mph 89 % 0.00 in
08:14 84.4 °F 80.1 °F 30.04 in Calm   1.0 mph 87 % 0.00 in
08:19 84.4 °F 79.3 °F 30.04 in Calm   1.0 mph 85 % 0.00 in
08:24 84.9 °F 80.2 °F 30.04 in Calm   1.0 mph 86 % 0.00 in
08:29 85.6 °F 80.6 °F 30.04 in Calm   1.0 mph 85 % 0.00 in
08:34 86.4 °F 81.0 °F 30.04 in Calm   1.0 mph 84 % 0.00 in
08:39 86.0 °F 80.2 °F 30.04 in Calm   1.0 mph 83 % 0.00 in
08:44 85.8 °F 79.7 °F 30.04 in Calm   2.0 mph 82 % 0.00 in
08:49 86.2 °F 80.1 °F 30.04 in NW 1.0 mph 2.0 mph 82 % 0.00 in
08:54 86.4 °F 80.6 °F 30.04 in Calm   2.0 mph 83 % 0.00 in
08:59 86.4 °F 81.0 °F 30.04 in Calm   5.0 mph 84 % 0.00 in
09:04 86.7 °F 81.0 °F 30.04 in Calm   5.0 mph 83 % 0.00 in
09:09 87.1 °F 81.0 °F 30.04 in Calm   5.0 mph 82 % 0.00 in
09:14 87.1 °F 81.0 °F 30.04 in Calm   3.0 mph 82 % 0.00 in
09:19 87.3 °F 81.5 °F 30.04 in South 1.0 mph 2.0 mph 83 % 0.00 in
09:24 87.6 °F 81.1 °F 30.04 in WNW 1.0 mph 4.0 mph 81 % 0.00 in
09:29 88.0 °F 81.0 °F 30.04 in NW 3.0 mph 4.0 mph 80 % 0.00 in
09:34 87.6 °F 79.9 °F 30.04 in Calm   4.0 mph 78 % 0.00 in
09:39 87.4 °F 79.7 °F 30.04 in Calm   4.0 mph 78 % 0.00 in
09:44 87.3 °F 79.9 °F 30.04 in SSE 1.0 mph 4.0 mph 79 % 0.00 in
09:49 86.7 °F 79.9 °F 30.04 in Calm   4.0 mph 80 % 0.00 in
09:52 86.7 °F 79.3 °F 30.04 in Calm   3.0 mph 79 % 0.00 in
09:57 87.4 °F 80.4 °F 30.04 in NW 3.0 mph 3.0 mph 80 % 0.00 in
10:02 87.3 °F 80.2 °F 30.03 in NNW 2.0 mph 4.0 mph 80 % 0.00 in
10:07 87.3 °F 79.5 °F 30.03 in NW 5.0 mph 5.0 mph 78 % 0.00 in
10:12 87.6 °F 80.2 °F 30.03 in SE 3.0 mph 5.0 mph 79 % 0.00 in
10:17 88.0 °F 78.6 °F 30.03 in SSW 1.0 mph 5.0 mph 74 % 0.00 in
10:22 88.2 °F 79.7 °F 30.03 in Calm   5.0 mph 76 % 0.00 in
10:27 88.5 °F 80.1 °F 30.03 in NW 2.0 mph 5.0 mph 76 % 0.00 in
10:32 89.2 °F 80.2 °F 30.03 in WNW 1.0 mph 5.0 mph 75 % 0.00 in
10:37 89.8 °F 79.5 °F 30.03 in West 1.0 mph 4.0 mph 72 % 0.00 in
10:42 89.1 °F 78.8 °F 30.03 in Calm   5.0 mph 72 % 0.00 in
10:47 88.9 °F 78.3 °F 30.03 in West 1.0 mph 5.0 mph 71 % 0.00 in
10:52 89.1 °F 79.7 °F 30.03 in ENE 1.0 mph 5.0 mph 74 % 0.00 in
10:57 90.1 °F 80.2 °F 30.03 in SSE 2.0 mph 3.0 mph 73 % 0.00 in
11:02 90.9 °F 81.0 °F 30.02 in Calm   4.0 mph 73 % 0.00 in
11:07 91.6 °F 79.9 °F 30.02 in SSW 1.0 mph 4.0 mph 69 % 0.00 in
11:12 92.5 °F 79.9 °F 30.02 in SSW 2.0 mph 4.0 mph 67 % 0.00 in
11:17 91.9 °F 79.0 °F 30.02 in SSW 2.0 mph 4.0 mph 66 % 0.00 in
11:22 91.6 °F 78.1 °F 30.02 in Calm   5.0 mph 65 % 0.00 in
11:27 91.2 °F 77.4 °F 30.02 in Calm   5.0 mph 64 % 0.00 in
11:32 91.9 °F 78.4 °F 30.01 in SSE 2.0 mph 5.0 mph 65 % 0.00 in
11:33 91.9 °F 77.5 °F 30.02 in SSE 1.0 mph 5.0 mph 63 % 0.00 in
11:38 92.7 °F 80.1 °F 30.01 in South 1.0 mph 5.0 mph 67 % 0.00 in
11:43 93.4 °F 79.3 °F 30.01 in SSE 1.0 mph 3.0 mph 64 % 0.00 in
11:48 93.7 °F 79.7 °F 30.01 in Calm   3.0 mph 64 % 0.00 in
11:53 93.9 °F 77.9 °F 30.01 in SSE 2.0 mph 5.0 mph 60 % 0.00 in
11:58 93.6 °F 78.6 °F 30.01 in SSW 3.0 mph 5.0 mph 62 % 0.00 in
12:03 93.4 °F 77.9 °F 30.01 in West 1.0 mph 5.0 mph 61 % 0.00 in
12:08 93.2 °F 79.2 °F 30.01 in Calm   5.0 mph 64 % 0.00 in
12:13 93.9 °F 78.4 °F 30.01 in SE 2.0 mph 5.0 mph 61 % 0.00 in
12:18 93.7 °F 79.2 °F 30.01 in Calm   5.0 mph 63 % 0.00 in
12:23 93.4 °F 77.4 °F 30.01 in South 2.0 mph 6.0 mph 60 % 0.00 in
12:28 93.4 °F 77.9 °F 30.01 in South 2.0 mph 7.0 mph 61 % 0.00 in
12:33 93.7 °F 78.8 °F 30.01 in SSW 3.0 mph 7.0 mph 62 % 0.00 in
12:38 94.3 °F 78.3 °F 30.01 in WNW 1.0 mph 7.0 mph 60 % 0.00 in
12:43 93.9 °F 77.4 °F 30.01 in NE 2.0 mph 6.0 mph 59 % 0.00 in
12:48 94.1 °F 78.1 °F 30.00 in SSW 3.0 mph 4.0 mph 60 % 0.00 in
12:53 93.6 °F 78.1 °F 30.00 in SSE 2.0 mph 5.0 mph 61 % 0.00 in
12:58 93.4 °F 76.5 °F 30.00 in Calm   7.0 mph 58 % 0.00 in
13:03 93.4 °F 76.5 °F 30.00 in SE 1.0 mph 7.0 mph 58 % 0.00 in
13:08 93.2 °F 78.3 °F 30.00 in South 2.0 mph 7.0 mph 62 % 0.00 in
13:13 93.7 °F 76.6 °F 30.00 in ESE 5.0 mph 6.0 mph 58 % 0.00 in
13:18 93.6 °F 76.6 °F 29.99 in SE 1.0 mph 6.0 mph 58 % 0.00 in
13:23 93.7 °F 77.2 °F 29.99 in South 4.0 mph 6.0 mph 59 % 0.00 in
13:28 94.3 °F 77.7 °F 29.99 in SSW 5.0 mph 6.0 mph 59 % 0.00 in
13:33 94.5 °F 76.3 °F 29.99 in Calm   6.0 mph 56 % 0.00 in
13:38 94.8 °F 76.6 °F 29.99 in South 2.0 mph 6.0 mph 56 % 0.00 in
13:43 95.2 °F 76.5 °F 29.99 in SSE 2.0 mph 7.0 mph 55 % 0.00 in
13:48 95.2 °F 75.4 °F 29.99 in East 1.0 mph 7.0 mph 53 % 0.00 in
13:53 95.0 °F 75.7 °F 29.98 in Calm   7.0 mph 54 % 0.00 in
13:58 94.6 °F 75.4 °F 29.98 in SSW 3.0 mph 7.0 mph 54 % 0.00 in
14:03 93.9 °F 74.7 °F 29.98 in SSW 1.0 mph 7.0 mph 54 % 0.00 in
14:08 94.3 °F 75.0 °F 29.98 in SE 2.0 mph 7.0 mph 54 % 0.00 in
14:13 94.6 °F 74.8 °F 29.97 in South 1.0 mph 7.0 mph 53 % 0.00 in
14:18 95.2 °F 76.5 °F 29.97 in South 4.0 mph 8.0 mph 55 % 0.00 in
14:23 95.5 °F 75.0 °F 29.97 in SSW 1.0 mph 8.0 mph 52 % 0.00 in
14:28 95.5 °F 74.5 °F 29.97 in Calm   8.0 mph 51 % 0.00 in
14:33 95.7 °F 74.7 °F 29.96 in East 4.0 mph 5.0 mph 51 % 0.00 in
14:38 95.7 °F 75.2 °F 29.96 in SSE 4.0 mph 5.0 mph 52 % 0.00 in
14:43 95.4 °F 75.0 °F 29.96 in Calm   7.0 mph 52 % 0.00 in
14:48 95.7 °F 76.5 °F 29.96 in Calm   7.0 mph 54 % 0.00 in
14:53 96.3 °F 75.2 °F 29.96 in SSW 3.0 mph 7.0 mph 51 % 0.00 in
14:58 96.4 °F 72.9 °F 29.96 in ESE 3.0 mph 7.0 mph 47 % 0.00 in
15:03 96.6 °F 73.8 °F 29.96 in SSE 6.0 mph 7.0 mph 48 % 0.00 in
15:08 96.1 °F 72.5 °F 29.96 in Calm   7.0 mph 47 % 0.00 in
15:13 95.5 °F 73.4 °F 29.96 in East 6.0 mph 7.0 mph 49 % 0.00 in
15:18 94.6 °F 73.8 °F 29.96 in SSE 3.0 mph 7.0 mph 51 % 0.00 in
15:23 94.8 °F 75.0 °F 29.95 in SE 6.0 mph 8.0 mph 53 % 0.00 in
15:28 95.4 °F 75.0 °F 29.95 in SW 1.0 mph 8.0 mph 52 % 0.00 in
15:33 96.1 °F 75.6 °F 29.95 in WNW 2.0 mph 8.0 mph 52 % 0.00 in
15:38 97.0 °F 77.0 °F 29.94 in SSW 1.0 mph 7.0 mph 53 % 0.00 in
15:43 97.7 °F 74.7 °F 29.94 in ESE 1.0 mph 5.0 mph 48 % 0.00 in
15:49 98.1 °F 76.3 °F 29.94 in East 4.0 mph 5.0 mph 50 % 0.00 in
15:54 97.0 °F 75.2 °F 29.94 in SE 2.0 mph 5.0 mph 50 % 0.00 in
15:59 96.4 °F 75.4 °F 29.93 in SE 5.0 mph 5.0 mph 51 % 0.00 in
16:04 95.9 °F 74.8 °F 29.93 in SSE 4.0 mph 9.0 mph 51 % 0.00 in
16:09 95.4 °F 75.6 °F 29.93 in East 2.0 mph 9.0 mph 53 % 0.00 in
16:14 95.4 °F 76.1 °F 29.93 in ENE 2.0 mph 9.0 mph 54 % 0.00 in
16:19 95.4 °F 75.6 °F 29.93 in SE 4.0 mph 9.0 mph 53 % 0.00 in
16:24 94.8 °F 74.5 °F 29.93 in SSE 4.0 mph 7.0 mph 52 % 0.00 in
16:29 94.8 °F 76.1 °F 29.92 in SSE 6.0 mph 7.0 mph 55 % 0.00 in
16:34 95.2 °F 77.0 °F 29.92 in SE 4.0 mph 7.0 mph 56 % 0.00 in
16:39 95.4 °F 75.0 °F 29.92 in SSW 4.0 mph 7.0 mph 52 % 0.00 in
16:44 94.8 °F 75.6 °F 29.92 in SSE 4.0 mph 8.0 mph 54 % 0.00 in
16:49 94.5 °F 75.2 °F 29.91 in SSW 3.0 mph 8.0 mph 54 % 0.00 in
16:54 94.3 °F 75.6 °F 29.91 in ESE 4.0 mph 8.0 mph 55 % 0.00 in
16:59 93.9 °F 74.7 °F 29.91 in ESE 4.0 mph 8.0 mph 54 % 0.00 in
17:04 94.1 °F 75.4 °F 29.91 in SE 4.0 mph 6.0 mph 55 % 0.00 in
17:09 94.3 °F 75.6 °F 29.91 in SSE 4.0 mph 6.0 mph 55 % 0.00 in
17:14 94.8 °F 76.6 °F 29.91 in Calm   6.0 mph 56 % 0.00 in
17:19 95.5 °F 75.0 °F 29.91 in South 2.0 mph 6.0 mph 52 % 0.00 in
17:24 95.4 °F 76.1 °F 29.91 in Calm   6.0 mph 54 % 0.00 in
17:30 95.0 °F 75.7 °F 29.91 in South 3.0 mph 6.0 mph 54 % 0.00 in
17:35 95.2 °F 74.8 °F 29.91 in SE 3.0 mph 6.0 mph 52 % 0.00 in
17:40 95.2 °F 78.1 °F 29.91 in SE 9.0 mph 9.0 mph 58 % 0.00 in
17:45 94.5 °F 77.4 °F 29.92 in SE 8.0 mph 9.0 mph 58 % 0.00 in
17:50 92.7 °F 76.8 °F 29.92 in SE 7.0 mph 14.0 mph 60 % 0.00 in
17:55 91.6 °F 77.2 °F 29.93 in SSE 8.0 mph 14.0 mph 63 % 0.00 in
18:00 90.5 °F 77.5 °F 29.92 in South 4.0 mph 14.0 mph 66 % 0.00 in
18:05 89.4 °F 77.9 °F 29.92 in ESE 3.0 mph 14.0 mph 69 % 0.00 in
18:10 88.9 °F 78.3 °F 29.92 in NNE 2.0 mph 17.0 mph 71 % 0.00 in
18:15 88.3 °F 78.6 °F 29.93 in East 9.0 mph 17.0 mph 73 % 0.00 in
18:20 88.2 °F 78.8 °F 29.93 in East 8.0 mph 17.0 mph 74 % 0.00 in
18:25 88.0 °F 79.0 °F 29.92 in South 1.0 mph 11.0 mph 75 % 0.00 in
18:30 88.0 °F 79.0 °F 29.92 in East 6.0 mph 12.0 mph 75 % 0.00 in
18:35 87.8 °F 79.3 °F 29.92 in SE 10.0 mph 12.0 mph 76 % 0.00 in
18:40 88.0 °F 79.9 °F 29.91 in ESE 8.0 mph 12.0 mph 77 % 0.00 in
18:45 88.0 °F 80.6 °F 29.92 in SSE 7.0 mph 11.0 mph 79 % 0.00 in
18:50 87.1 °F 80.2 °F 29.93 in ESE 7.0 mph 16.0 mph 80 % 0.00 in
18:55 85.8 °F 79.3 °F 29.93 in ESE 1.0 mph 16.0 mph 81 % 0.00 in
19:00 84.4 °F 77.9 °F 29.93 in East 6.0 mph 15.0 mph 81 % 0.00 in
19:05 83.5 °F 76.6 °F 29.93 in SE 6.0 mph 12.0 mph 80 % 0.00 in
19:10 83.3 °F 76.5 °F 29.93 in SE 2.0 mph 12.0 mph 80 % 0.00 in
19:15 83.5 °F 77.0 °F 29.93 in South 4.0 mph 10.0 mph 81 % 0.00 in
19:20 83.5 °F 77.7 °F 29.92 in SE 3.0 mph 10.0 mph 83 % 0.00 in
19:25 83.7 °F 78.3 °F 29.92 in SE 6.0 mph 9.0 mph 84 % 0.00 in
19:30 83.7 °F 78.6 °F 29.92 in SE 5.0 mph 8.0 mph 85 % 0.00 in
19:35 83.7 °F 78.6 °F 29.92 in ESE 2.0 mph 9.0 mph 85 % 0.00 in
19:40 83.7 °F 78.6 °F 29.92 in SE 7.0 mph 11.0 mph 85 % 0.00 in
19:45 83.5 °F 78.1 °F 29.91 in ESE 5.0 mph 11.0 mph 84 % 0.00 in
19:50 83.5 °F 78.1 °F 29.92 in ESE 4.0 mph 11.0 mph 84 % 0.00 in
19:55 83.7 °F 78.3 °F 29.92 in SSE 2.0 mph 11.0 mph 84 % 0.00 in
20:00 83.8 °F 78.4 °F 29.92 in SE 2.0 mph 8.0 mph 84 % 0.00 in
20:05 84.0 °F 78.3 °F 29.92 in ESE 5.0 mph 8.0 mph 83 % 0.00 in
20:10 84.0 °F 78.3 °F 29.93 in East 4.0 mph 8.0 mph 83 % 0.00 in
20:15 84.0 °F 78.3 °F 29.93 in East 2.0 mph 7.0 mph 83 % 0.00 in
20:17 83.8 °F 78.1 °F 29.93 in SE 1.0 mph 7.0 mph 83 % 0.00 in
20:22 83.8 °F 78.1 °F 29.93 in SE 1.0 mph 6.0 mph 83 % 0.00 in
20:27 83.7 °F 77.9 °F 29.94 in South 2.0 mph 4.0 mph 83 % 0.00 in
20:32 83.7 °F 77.9 °F 29.94 in SSW 2.0 mph 5.0 mph 83 % 0.00 in
20:37 83.8 °F 78.1 °F 29.94 in SSW 1.0 mph 5.0 mph 83 % 0.00 in
20:42 84.0 °F 77.9 °F 29.94 in SSE 2.0 mph 6.0 mph 82 % 0.00 in
20:47 84.4 °F 77.9 °F 29.93 in South 3.0 mph 6.0 mph 81 % 0.00 in
20:52 84.6 °F 78.1 °F 29.93 in SSE 1.0 mph 8.0 mph 81 % 0.00 in
20:57 84.7 °F 77.9 °F 29.93 in SSE 2.0 mph 8.0 mph 80 % 0.00 in
21:02 84.7 °F 78.3 °F 29.93 in South 2.0 mph 8.0 mph 81 % 0.00 in
21:07 84.6 °F 78.1 °F 29.94 in Calm   5.0 mph 81 % 0.00 in
21:12 84.4 °F 78.3 °F 29.94 in Calm   5.0 mph 82 % 0.00 in
21:17 84.4 °F 78.3 °F 29.94 in Calm   4.0 mph 82 % 0.00 in
21:22 83.8 °F 77.0 °F 29.94 in Calm   3.0 mph 80 % 0.00 in
21:27 83.5 °F 76.3 °F 29.94 in Calm   2.0 mph 79 % 0.00 in
21:32 83.5 °F 76.3 °F 29.94 in Calm   2.0 mph 79 % 0.00 in
21:37 83.1 °F 76.3 °F 29.94 in Calm   2.0 mph 80 % 0.00 in
21:42 82.9 °F 76.5 °F 29.94 in ESE 2.0 mph 2.0 mph 81 % 0.00 in
21:47 83.1 °F 77.0 °F 29.94 in East 1.0 mph 3.0 mph 82 % 0.00 in
21:52 83.5 °F 77.4 °F 29.94 in Calm   3.0 mph 82 % 0.00 in
21:57 83.7 °F 77.9 °F 29.94 in East 2.0 mph 5.0 mph 83 % 0.00 in
22:02 83.8 °F 78.1 °F 29.94 in SSE 1.0 mph 5.0 mph 83 % 0.00 in
22:07 83.8 °F 78.1 °F 29.94 in South 1.0 mph 5.0 mph 83 % 0.00 in
22:12 83.7 °F 77.9 °F 29.94 in South 3.0 mph 4.0 mph 83 % 0.00 in
22:17 83.7 °F 77.9 °F 29.94 in SSE 2.0 mph 4.0 mph 83 % 0.00 in
22:22 83.7 °F 77.9 °F 29.94 in SSW 2.0 mph 6.0 mph 83 % 0.00 in
22:27 83.8 °F 77.7 °F 29.94 in South 2.0 mph 6.0 mph 82 % 0.00 in
22:32 84.0 °F 77.9 °F 29.95 in SSE 4.0 mph 6.0 mph 82 % 0.00 in
22:37 84.2 °F 78.1 °F 29.95 in SSE 2.0 mph 7.0 mph 82 % 0.00 in
22:42 84.4 °F 77.9 °F 29.95 in SE 2.0 mph 7.0 mph 81 % 0.00 in
22:47 84.4 °F 77.9 °F 29.95 in SSE 2.0 mph 7.0 mph 81 % 0.00 in
22:52 84.4 °F 78.3 °F 29.95 in SSE 2.0 mph 6.0 mph 82 % 0.00 in
22:57 84.4 °F 78.3 °F 29.95 in SSE 5.0 mph 5.0 mph 82 % 0.00 in
23:02 84.2 °F 78.1 °F 29.95 in South 3.0 mph 5.0 mph 82 % 0.00 in
23:07 83.8 °F 77.7 °F 29.95 in South 1.0 mph 5.0 mph 82 % 0.00 in
23:12 83.8 °F 78.1 °F 29.95 in SSE 1.0 mph 5.0 mph 83 % 0.00 in
23:17 83.8 °F 77.7 °F 29.95 in SSE 3.0 mph 6.0 mph 82 % 0.00 in
23:22 83.8 °F 78.1 °F 29.95 in SE 2.0 mph 6.0 mph 83 % 0.00 in
23:27 83.7 °F 77.9 °F 29.95 in SSE 1.0 mph 6.0 mph 83 % 0.00 in
23:28 83.7 °F 77.9 °F 29.95 in SSE 1.0 mph 6.0 mph 83 % 0.00 in
23:33 83.7 °F 77.9 °F 29.95 in Calm   5.0 mph 83 % 0.00 in
23:38 83.5 °F 77.7 °F 29.96 in Calm   5.0 mph 83 % 0.00 in
23:43 83.1 °F 77.4 °F 29.96 in South 1.0 mph 5.0 mph 83 % 0.00 in
23:48 83.1 °F 77.7 °F 29.96 in South 1.0 mph 2.0 mph 84 % 0.00 in
23:53 83.1 °F 77.7 °F 29.95 in SSW 1.0 mph 3.0 mph 84 % 0.00 in
23:58 82.9 °F 77.5 °F 29.95 in South 3.0 mph 3.0 mph 84 % 0.00 in
Spring, Texas: Villages of Bridgestone
Compliments of Weather Underground - 2.75 mb

Script developed by  Jim McMurry - jmcmurry@mwt.net Adapted for the template by  Wim van der Kuil - Leuven-Template.eu

You find our weather info also at:

UK Metoffice

WeatherCloud

Weather Underground

Mid-South Weather Network

AWEKAS

Citizen Weather Observer Program (CWOP)

HAMweather, WeatherForYou, PWS Weather

Equipment we use:

Weather-station
Davis Vantage Vue

Weather-program
Meteohub

Weather-server
Debian 7.9 x86 (Guest)

Provider
DreamHost

Davis Vantage Vue

Meteohub

Debian 7.9 x86 (Guest)

DreamHost